HAAB

Bole International

Airport
ICAO code
HAAB
IATA Code
ADD
Summary
ICAO Region
AFI
ICAO Territory
Location

Addis Ababa, Addis Ababa

Serving
Addis Ababa
Elevation
7656 ft
Coordinates
8° 58' 40" N , 38° 47' 58" E
KCC
Airport RE
Hot and High Operations
Metar
Observation
HAAB 271500Z 09010KT 9999 SCT025 17/06 Q1023
Station
Addis Ababa
Date/Time
2022-11-27 15:00:00
Wind direction
90°
Wind speed
10 kts
Lowest cloud amount
scattered clouds
Temperature
17°C
Dew point
6°C
Humidity
48%
QNH
1023 hPa
Weather condition
n/a

International airport serving Addis Ababa, the capital of Ethiopia.

Climatology

Sub-tropical Highland climate (Köppen climate classification Cwb) - In the tropics, a Subtropical Highland climate tends to feature spring-like weather year-round. Average temperatures here remain relatively constant throughout the year but with a significant diurnal variation.

Runways

Designator Length Width Surface Rops
07L/25R 3700 45 ASP Yes/Yes
07R/25L 3800 45 ASP Yes/Yes

SKYbrary Partners:

Safety knowledge contributed by: